Location: Earls Croome
(52.0667°N, 2.2000°W)
Time: 17:48:55
(UTC+00:00)

ADEOS Rocket - Pass Details

Date: 17 November 2019
Orbit: 858 x 1307 km, 98.7° (Epoch: 11 December)

Event Time Altitude Azimuth Distance (km) Brightness Sun altitude
Rises 05:52:01 0° 145° (SE) 4,288 7.1 -15.1°
Reaches altitude 10° 05:54:48 10° 142° (SE) 3,311 6.5 -14.6°
Maximum altitude 06:02:18 58° 66° (ENE) 1,448 4.2 -13.5°
Drops below altitude 10° 06:09:24 10° 350° (N) 3,131 5.4 -12.5°
Sets 06:11:58 0° 347° (NNW) 4,042 5.9 -12.1°
